IRIDIUM 175

Last updated on Fri Sep 11 2026 00:03:06 GMT+0000 (Coordinated Universal Time)

1 43928U 19002G 26253.53200123 .00000109 00000+0 26079-4 0 9999 2 43928 86.4462 254.8296 0001722 344.8405 15.2744 14.43644813411292
UTC large
Height (km)
Speed (km/s)
/
Latitude / Longitude
Inclination (degrees)
Orbital Period (minutes)
Azimuth
Elevation
Range (km)
Doppler Factor

Next 0 passes for location: London (51.5072 / 0.1276)

No passes found over London.
IRIDIUM 175